Track COSMOS 2475 (GLONASS) now! COSMOS 2475 (GLONASS) is classified as:
1 37869U 11064C 26247.58189117 .00000033 00000-0 00000+0 0 9991 2 37869 65.3320 70.2959 0024474 246.5840 122.1396 2.13101587115465